Voltar ao catálogo

GEO-KOMPSAT-2B

AtivoCiênciaGEO
NORAD 45246·PAYLOAD·🇰🇷 South Korea

Lançado Feb 18, 2020 de Guiana Space Centre

Loading…

TLE

AtualizadoSource: Space-Track

Época: Sep 14, 2026, 14:24 UTC

1 45246U 20013B   26257.60058112 -.00000352  00000-0  00000-0 0  9993
2 45246   0.0552 317.0944 0001043 271.4006 109.5641  1.00273109 24174

Acompanhe GEO-KOMPSAT-2B em tempo real com AllMySat

Download on the App Store